Cleveland Burke, OH

11:56 PM EDT on April 25, 2018 (GMT -0400)
Burke Lakefront

Weather History for KBKL - January, 2011

Change the Weather History Date:

Monday, January 31, 2011

  Actual Average Record
Temperature  
Mean Temperature 14 °F -  
Max Temperature 19 °F 35 °F 62 °F (2012)
Min Temperature 8 °F 22 °F 6 °F (2004)
Degree Days  
Heating Degree Days 52    
Moisture  
Dew Point 9 °F    
Average Humidity 78    
Maximum Humidity 87    
Minimum Humidity 71    
Precipitation  
Precipitation 0.00 in - - ()
Sea Level Pressure  
Sea Level Pressure 30.39 in    
Wind  
Wind Speed 10 mph (NE)    
Max Wind Speed 22 mph    
Max Gust Speed 17 mph    
Visibility 10 miles    
Events Snow    
Averages and records for this station are not official NWS values.
T = Trace of Precipitation, MM = Missing Value Source: NWS Daily Summary

Daily Weather History Graph

Daily Weather History Graph

Search for Another Location

Airport or City:

Astronomy

Jan. 31, 2011 Rise Set
Actual Time 7:39 AM EST 5:41 PM EST
Civil Twilight 7:10 AM EST 6:10 PM EST
Nautical Twilight 6:37 AM EST 6:43 PM EST
Astronomical Twilight 6:04 AM EST 7:16 PM EST
Moon 5:58 AM EST (1/31) 3:31 PM EST (1/31)
Length of Visible Light 11h 00m
Length of Day
10h 01m
Waning Crescent, 6% of the Moon is Illuminated
Jan 31
Waning Crescent
Feb 2
New
Feb 11
First Quarter
Feb 18
Full
Feb 24
Last Quarter

Hourly Weather History & Observations

Time (EST) Temp. Windchill Dew Point Humidity Pressure Visibility Wind Dir Wind Speed Gust Speed Precip Events Conditions
12:53 AM 12.9 °F 3.8 °F 9.0 °F 84% 30.45 in 10.0 mi ENE 5.8 mph - N/A   Clear
1:53 AM 10.9 °F 0.2 °F 7.0 °F 84% 30.46 in 10.0 mi NE 6.9 mph - N/A   Clear
2:53 AM 10.0 °F -0.9 °F 6.1 °F 84% 30.47 in 10.0 mi NE 6.9 mph - N/A   Clear
3:53 AM 9.0 °F -2.2 °F 5.0 °F 84% 30.47 in 10.0 mi NE 6.9 mph - N/A   Clear
4:53 AM 12.9 °F 2.6 °F 6.1 °F 74% 30.47 in 10.0 mi ENE 6.9 mph - N/A   Clear
5:53 AM 10.0 °F -0.9 °F 3.9 °F 76% 30.48 in 10.0 mi ENE 6.9 mph - N/A   Clear
6:53 AM 9.0 °F -5.1 °F 3.0 °F 77% 30.49 in 10.0 mi NE 10.4 mph - N/A   Clear
7:53 AM 8.1 °F -2.0 °F 5.0 °F 87% 30.52 in 10.0 mi NE 5.8 mph - N/A   Clear
8:53 AM 12.9 °F 1.6 °F 7.0 °F 77% 30.50 in 10.0 mi ENE 8.1 mph - N/A   Clear
9:53 AM 16.0 °F 5.3 °F 8.1 °F 71% 30.49 in 10.0 mi NE 8.1 mph - N/A   Clear
10:53 AM 14.0 °F -0.2 °F 9.0 °F 80% 30.50 in 10.0 mi NNE 12.7 mph - N/A   Clear
11:53 AM 16.0 °F 1.1 °F 10.0 °F 77% 30.46 in 10.0 mi NNE 15.0 mph - N/A   Clear
12:53 PM 17.1 °F 1.0 °F 10.0 °F 74% 30.42 in 10.0 mi NE 18.4 mph - N/A   Clear
1:53 PM 17.1 °F 1.5 °F 12.0 °F 81% 30.38 in 10.0 mi NE 17.3 mph - N/A   Mostly Cloudy
2:53 PM 18.0 °F 1.7 °F 12.0 °F 78% 30.34 in 10.0 mi NE 19.6 mph - N/A   Mostly Cloudy
3:53 PM 17.1 °F -0.3 °F 12.0 °F 81% 30.35 in 9.0 mi NNE 21.9 mph - N/A   Clear
4:53 PM 17.1 °F 0.6 °F 10.9 °F 77% 30.32 in 10.0 mi NE 19.6 mph - N/A   Partly Cloudy
5:53 PM 17.1 °F 4.3 °F 10.9 °F 77% 30.32 in 10.0 mi ENE 11.5 mph - N/A   Clear
6:53 PM 17.1 °F 3.6 °F 10.9 °F 77% 30.32 in 10.0 mi NE 12.7 mph - N/A   Clear
7:53 PM 17.1 °F 2.5 °F 10.0 °F 74% 30.30 in 10.0 mi NE 15.0 mph - N/A   Clear
8:53 PM 18.0 °F 5.4 °F 10.9 °F 74% 30.27 in 10.0 mi NE 11.5 mph - N/A   Clear
9:53 PM 19.0 °F 6.8 °F 10.9 °F 71% 30.23 in 10.0 mi ENE 11.5 mph 17.3 mph N/A   Clear
10:53 PM 19.0 °F 9.0 °F 12.0 °F 74% 30.23 in 10.0 mi NE 8.1 mph - N/A   Scattered Clouds
11:53 PM 19.0 °F 6.8 °F 14.0 °F 81% 30.20 in 3.0 mi NE 11.5 mph - 0.00 in Snow Light Snow